Location: Bogis-Bossey
(46.3500°N, 6.1667°E)
Time: 17:34:13
(UTC+00:00)

Cosmos 2082 Rocket - Pass Details

Date: 17 August 2022
Orbit: 834 x 852 km, 71.0° (Epoch: 30 September)

Event Time Altitude Azimuth Distance (km) Brightness Sun altitude
Rises 23:16:42 0° 323° (NW) 3,391 6.2 -30.3°
Reaches altitude 10° 23:19:29 10° 312° (NW) 2,452 5.1 -30.3°
Enters shadow 23:22:58 24° 275° (W) 1,650 3.7 -30.4°
